Regional Weather Roundup
Issued by NWS Grand Forks, ND

Home | Current Version | Previous Version | Graphics & Text | Print | Product List | Glossary On
Versions: 1 2 3 4 5 6 7 8 9 10 11 12 13 14 15 16 17 18 19 20 21 22 23 24 25 26 27 28 29 30 31 32 33 34 35 36 37 38 39 40 41 42 43 44 45 46 47 48 49 50
000
ASUS43 KFGF 180131
RWRFGF
PRAIRIE TO PINES  WEATHER ROUNDUP
NATIONAL WEATHER SERVICE EASTERN NORTH DAKOTA/GRAND FORKS ND
800 PM CDT WED SEP 17 2014

 **SATELLITE DATA USED TO AUGMENT SKY COVER AT AUTOMATED STATIONS**
 *****  WEATHER ACROSS EASTERN NORTH DAKOTA  *****

CITY           SKY/WX    TMP DP  RH WIND       PRES   REMARKS
GRAND FORKS    CLEAR     57  45  64 NE12      30.03R
GRAND FRKS AFB CLEAR     56  47  72 NE5       30.04R
GRAND FRKS NWS   N/A     54 N/A N/A NE5         N/A
DEVILS LAKE    CLEAR     52  41  66 E7        30.02S
FARGO          CLEAR     63  52  67 N9        29.99R
WAHPETON ARPT  CLEAR     61  46  59 N6        29.99R
$$

 ***** WEATHER ACROSS CENTRAL AND WESTERN NORTH DAKOTA  *****

CITY           SKY/WX    TMP DP  RH WIND       PRES   REMARKS
BISMARCK       CLEAR     61  49  64 E8        29.96S
MINOT          CLEAR     58  48  69 E7        29.98R
JAMESTOWN      CLEAR     57  51  80 E7        29.99S
MINOT AFB      CLEAR     59  50  71 E9        29.97S
GARRISON         N/A     62  49  62 E8        29.96R
WILLISTON      CLEAR     68  43  40 SE7       29.91S
DICKINSON      CLEAR     59  46  62 SE9       29.94S
HETTINGER      CLEAR     62  52  69 E10       29.96R
$$

 *****  OTHER AIRPORT OBSERVATIONS IN OUR AREA  *****

CITY           SKY/WX    TMP DP  RH WIND       PRES   REMARKS
WALHALLA         N/A     48  43  81 NE7       30.07S
GRAFTON AIRPOR FAIR      52  45  76 E10       30.05R
VALLEY CITY AR FAIR      57  54  88 NE6       30.01S
CANDO          FAIR      50  43  76 E8        30.05R
CAVALIER APRT  FAIR      50  43  76 NE7       30.07R
GWINNER        CLEAR     57  48  72 N7        30.00R
SHEYENNE NWR     N/A     63  49  61 N2        29.95S
ROLLA          FAIR      48  41  76 E9        30.05R
 ***** THE ABOVE OBSERVATIONS ARE NON NWS ARE NOT QUALITY
       CONTROLLED AND MAY MIS-REPORT RAIN FOR SNOW...
$$

  *****  WEATHER ACROSS NORTHERN MINNESOTA  *****

CITY           SKY/WX    TMP DP  RH WIND       PRES   REMARKS
FLAG ISLAND    PTCLDY    45  36  70 E5        30.10R
WARROAD        MOCLDY    46  41  81 E10       30.10S
ROSEAU         CLEAR     43  37  81 E5        30.09S
HALLOCK        CLEAR     50  43  76 E9        30.07R
THF RVR FALLS  CLEAR     52  43  71 NE13      30.05R
BAUDETTE       CLEAR     43  38  82 NE7       30.10R
WASKISH        CLEAR     46  41  81 CALM      30.08R
CROOKSTON      CLEAR     54  46  76 NE8       30.04R
$$
  *****  WEATHER ACROSS CENTRAL AND WEST MINNESOTA  *****

CITY           SKY/WX    TMP DP  RH WIND       PRES   REMARKS
FOSSTON        CLEAR     52  45  76 NE5       30.04R
BEMIDJI        CLEAR     52  46  79 NE7       30.03R
PARK RAPIDS    CLEAR     61  51  70 NE8       30.01R
ELBOW LAKE     FAIR      62  52  71 NE3       29.98R
WADENA         MOCLDY    63  52  67 NE6       30.00R
DETROIT LAKES  CLEAR     61  52  72 NE7       30.01R
MOORHEAD       CLEAR     59  55  88 N8        30.00R
FERGUS FALLS   CLEAR     66  45  45 CALM      29.98R
MORRIS MN      CLEAR     61  54  77 NE6       29.97R
STAPLES        CLEAR     61  50  67 CALM      30.00R
$$
  *****  WEATHER ELSEWHERE ACROSS MINNESOTA  *****

CITY           SKY/WX    TMP DP  RH WIND       PRES   REMARKS
DULUTH         CLOUDY    45  39  79 E14G23    30.09R
INTRNTL FALLS  PTCLDY    44  38  79 NE3       30.10R
ELY            CLOUDY    45  43  93 E5        30.10R
CLOQUET        CLOUDY    46  41  81 E13       30.08R
WHEATON        CLEAR     63  52  67 NE3       29.99R
BRAINERD       CLEAR     57  52  83 N3        29.99R
HIBBING        CLOUDY    50  43  77 SE7       30.07R
ALEXANDRIA     CLEAR     62  53  72 CALM      29.99R
SAINT CLOUD    CLEAR     62  55  77 CALM      29.97R
MINNEAPOLIS    PTCLDY    68  53  58 NE5       29.97R
$$

  *****  WEATHER ACROSS SOUTH DAKOTA  *****

CITY           SKY/WX    TMP DP  RH WIND       PRES   REMARKS
SIOUX FALLS    PTCLDY    65  56  72 N5        29.94R
BROOKINGS      NOT AVBL
WATERTOWN      CLEAR     61  51  70 NE5       29.98R
HURON          PTCLDY    62  51  67 CALM      29.94R
SISSETON         N/A     56  53  90 CALM      29.96R
ABERDEEN       MOCLDY    60  53  77 N6        29.97S
MITCHELL       PTCLDY    65  56  72 NE7       29.94R
PIERRE         CLOUDY    70  45  40 E12       29.93R
MOBRIDGE       CLOUDY    64  49  57 E13       29.93F
RAPID CITY     MOCLDY    71  53  52 E10       29.93R
$$

  *****  SOME WEATHER IN NEARBY STATES *****

CITY           SKY/WX    TMP DP  RH WIND       PRES   REMARKS
GLASGOW MT     CLEAR     73  48  41 E13       29.80S
GREAT FALLS MT CLOUDY    73  52  47 S9        29.79F
CHEYENNE WY    PTCLDY    73  38  27 CALM      30.09S
SCOTTSBLUFF NE MOCLDY    80  48  32 CALM      29.93F
OMAHA NE       PTCLDY    72  62  71 E6        29.91R
DES MOINES IA  PTCLDY    70  56  61 E5        29.94R
DAVENPORT IA   CLEAR     58  48  69 E3        29.98R
CHICAGO IL     CLEAR     63  46  54 E5        29.99R
EAU CLAIRE WI  CLEAR     58  54  86 CALM      29.97R
LA CROSSE WI   CLEAR     61  55  81 SE6       29.97R
$$

  *****  SOME NATIONAL WEATHER *****

CITY           SKY/WX    TMP DP  RH WIND       PRES   REMARKS
LA GUARDIA NY  PTCLDY    68  47  46 CALM      29.98R
RALEIGH NC     PTCLDY    69  63  81 E5        29.96R
ATLANTA GA     MOCLDY    75  57  53 NW9       29.94R
NEW ORLEANS LA MOCLDY    82  74  76 S6        29.91R
OKLAHOMA CITY  CLOUDY    81  68  64 S6        29.86R
ALBUQUERQUE NM MOCLDY    68  57  68 SW7       30.08S
SALT LAKE CITY PTCLDY    88  42  20 N9        29.86S
LOS ANGELES CA MOSUNNY   81  57  43 W21       29.70S
BOISE ID       FAIR      90  37  15 CALM      29.71F
SEATTLE WA     CLOUDY    67  54  63 N8        29.73F
$$

*** WEATHER ACROSS MANITOBA...SASKATCHEWAN AND ONTARIO ***
                ***ONTARIO***

CITY           SKY/WX    TMP DP  RH WIND       PRES   REMARKS
GERALDTON      PTCLDY    37  34  87 CALM      30.11R
THUNDER BAY    CLOUDY    43  37  81 NE5       30.15R
SIOUX LOOKOUT  MOCLDY    34  34 100 N2        30.13R
TORONTO        PTCLDY    61  48  63 W7        29.96R
BIG TROUT LK   CLOUDY    34  19  55 N8        30.16R
PICKLE LAKE    PTCLDY    37  25  60 NE5       30.12R
DRYDEN         CLOUDY    41  34  75 NE3       30.13R
KENORA         PTCLDY    41  34  75 E5        30.12R
$$
                *** MANITOBA***

CITY           SKY/WX    TMP DP  RH WIND       PRES   REMARKS
BRANDON        MOCLDY    45  39  81 E13       30.07F
DAUPHIN        CLOUDY    43  39  87 SE10      30.08F
ISLAND LAKE    PTCLDY    37  30  75 CALM      30.14R
PILOT MOUND      N/A     46  39  76 E5          N/A
THE PAS        MOCLDY    43  36  75 SE8       30.02F
THOMPSON       PTCLDY    36  27  69 SE5       30.07F
WINNIPEG       CLOUDY    45  39  81 NE7       30.11S
LYNN LAKE      CLEAR     39  23  52 S6        29.95F
CHURCHILL      MOCLDY    34  27  75 SE5       30.10F
GILLAM         PTCLDY    30  27  86 SE5       30.11F
$$
                ***SASKATCHEWAN***

CITY           SKY/WX    TMP DP  RH WIND       PRES   REMARKS
ESTEVAN        PTCLDY    55  50  82 E12       29.96S
KINDERSLEY     MOCLDY    68  50  52 E12       29.75F
LLOYDMINSTER   CLOUDY    59  48  67 SE15      29.75F
PRINCE ALBERT  MOCLDY    52  46  82 SE7       29.88F
REGINA         PTCLDY    59  48  67 SE16G22   29.89F
YORKTON        MOCLDY    46  41  81 E9        29.99F
N. BATTLEFORD  CLEAR     55  48  76 SE12      29.82F
LA RONGE       CLOUDY    46  41  81 SE14G21   29.87F
SASKATOON      CLOUDY    59  48  67 SE15      29.85F
SWIFT CURRENT  CLEAR     68  46  45 S10       29.77F
$$
NOTE: THESE ARE AUTOMATED STATIONS WITH LIMITED QUALITY CONTROL
      "FAIR" INDICATES FEW OR NO CLOUDS BELOW 12,000 FEET WITH NO
      SIGNIFICANT WEATHER AND/OR OBSTRUCTIONS TO VISIBILITY.
      SKY/WX - SKY CONDITION AND SIGNIFICANT WEATHER.
      TMP - AIR TEMPERATURE.    DP   - DEWPOINT TEMPERATURE.
      RH  - RELATIVE HUMIDITY.  PRES - PRESSURE.
      HX  - HEAT INDEX.         WCI  - WIND CHILL INDEX.
$



USA.gov is the U.S. government's official web portal to all federal, state and local government web resources and services.